TimeMST,TemperatureF,Dew PointF,Humidity,Sea Level PressureIn,VisibilityMPH,Wind Direction,Wind SpeedMPH,Gust SpeedMPH,PrecipitationIn,Events,Conditions,WindDirDegrees,DateUTC
12:53 AM,26.1,14.0,60,30.27,10.0,WNW,9.2,-,N/A,,Overcast,300,2013-02-27 07:53:00
1:53 AM,26.1,12.0,55,30.28,10.0,WSW,16.1,-,N/A,,Overcast,240,2013-02-27 08:53:00
3:53 AM,25.0,8.1,49,30.28,10.0,SSW,25.3,40.3,N/A,,Mostly Cloudy,210,2013-02-27 10:53:00
4:53 AM,24.1,8.1,51,30.29,10.0,WSW,25.3,34.5,N/A,,Clear,240,2013-02-27 11:53:00
5:53 AM,24.1,8.1,51,30.30,10.0,WNW,23.0,34.5,N/A,,Clear,290,2013-02-27 12:53:00
6:53 AM,25.0,8.1,49,30.30,10.0,WSW,25.3,44.9,N/A,,Clear,240,2013-02-27 13:53:00
7:53 AM,26.1,9.0,49,30.30,10.0,West,24.2,34.5,N/A,,Clear,270,2013-02-27 14:53:00
8:53 AM,28.9,9.0,43,30.30,10.0,SW,31.1,40.3,N/A,,Clear,220,2013-02-27 15:53:00
10:53 AM,36.0,12.0,37,30.29,10.0,SW,21.9,33.4,N/A,,Clear,230,2013-02-27 17:53:00
11:53 AM,37.0,12.9,37,30.27,10.0,SW,25.3,-,N/A,,Partly Cloudy,220,2013-02-27 18:53:00
12:53 PM,37.9,12.9,36,30.25,10.0,SW,24.2,29.9,N/A,,Partly Cloudy,220,2013-02-27 19:53:00
1:53 PM,42.1,12.9,31,30.21,10.0,West,20.7,26.5,N/A,,Partly Cloudy,260,2013-02-27 20:53:00
2:53 PM,42.1,10.0,27,30.20,10.0,West,20.7,26.5,N/A,,Mostly Cloudy,270,2013-02-27 21:53:00
3:53 PM,43.0,12.0,28,30.20,10.0,NW,11.5,19.6,N/A,,Clear,320,2013-02-27 22:53:00
4:53 PM,39.9,10.0,29,30.20,10.0,West,15.0,-,N/A,,Partly Cloudy,280,2013-02-27 23:53:00
5:53 PM,37.0,12.9,37,30.21,10.0,SW,11.5,-,N/A,,Scattered Clouds,230,2013-02-28 00:53:00
6:53 PM,36.0,12.9,39,30.22,10.0,SSW,19.6,26.5,N/A,,Overcast,210,2013-02-28 01:53:00
7:53 PM,34.0,12.0,40,30.24,10.0,SSW,29.9,40.3,N/A,,Overcast,210,2013-02-28 02:53:00
8:53 PM,33.1,10.9,40,30.24,10.0,SSW,27.6,38.0,N/A,,Partly Cloudy,210,2013-02-28 03:53:00
9:53 PM,32.0,10.0,40,30.24,10.0,SW,25.3,36.8,N/A,,Mostly Cloudy,220,2013-02-28 04:53:00
10:53 PM,34.0,9.0,35,30.21,10.0,SW,23.0,29.9,N/A,,Scattered Clouds,220,2013-02-28 05:53:00
11:53 PM,30.9,9.0,40,30.21,10.0,SW,33.4,41.4,N/A,,Clear,220,2013-02-28 06:53:00